Location: Macksville High School
(37.9611°N, 99.9654°W)
Time: 15:23:08
(UTC+00:00)

Daily predictions for brighter satellites

Satellite Brightness Start Highest point End
(mag) Time Altitude Azimuth Time Altitude Azimuth Time Altitude Azimuth
STARLINK-1161 2.5 12:01:58 37° WNW 12:02:57 74° SW 12:05:51 10° SE
STARLINK-1145 2.6 12:02:11 37° WNW 12:03:11 74° SW 12:06:05 10° SE
STARLINK-1172 2.6 12:02:23 36° WNW 12:03:24 73° SW 12:06:17 10° SE
STARLINK-1182 2.6 12:02:49 36° WNW 12:03:51 72° SW 12:06:45 10° SE
STARLINK-1140 3.2 12:01:44 22° NW 12:03:58 83° NE 12:07:32 10° SE
STARLINK-1164 2.6 12:03:02 35° WNW 12:04:04 72° SW 12:06:58 10° SE
STARLINK-1168 2.6 12:03:16 35° WNW 12:04:18 71° SW 12:07:12 10° SE
STARLINK-1183 2.6 12:03:54 34° WNW 12:04:58 70° SW 12:07:52 10° SE
STARLINK-1181 2.6 12:04:08 34° WNW 12:05:12 69° SW 12:08:06 10° SE
OAO 2 Rocket 4.1 12:01:59 17° SW 12:05:42 48° SSE 12:10:47 10° E
STARLINK-1196 2.6 12:04:45 33° WNW 12:05:52 68° SW 12:08:46 10° SE
STARLINK-1186 2.6 12:05:13 33° WNW 12:06:19 67° SW 12:09:12 10° SE
STARLINK-1185 2.6 12:05:25 33° WNW 12:06:32 66° SW 12:09:26 10° SE
STARLINK-1175 2.6 12:05:38 32° WNW 12:06:46 66° SW 12:09:40 10° SE
STARLINK-1147 2.6 12:05:51 32° WNW 12:06:59 65° SW 12:09:52 10° SE
STARLINK-1156 3.2 12:04:47 20° NW 12:07:08 89° NE 12:10:43 10° SE
STARLINK-1146 2.6 12:06:03 31° WNW 12:07:13 65° SW 12:10:07 10° SE
STARLINK-1152 2.6 12:06:16 31° WNW 12:07:26 64° SW 12:10:20 10° SE
STARLINK-1195 2.6 12:06:29 31° WNW 12:07:39 64° SW 12:10:33 10° SE
STARLINK-1137 2.6 12:06:43 31° WNW 12:07:54 63° SW 12:10:46 10° SE
FENGYUN 3A 3.6 12:02:32 10° N 12:07:59 76° WNW 12:13:22 10° SSW
STARLINK-1142 2.6 12:06:56 31° WNW 12:08:06 63° SW 12:11:00 10° SE
Cosmos 1862 4.0 12:04:39 10° NNW 12:08:08 30° W 12:11:38 10° SSW
STARLINK-1127 2.7 12:07:09 31° WNW 12:08:21 62° SW 12:11:13 10° SE
STARLINK-1184 2.7 12:07:22 30° WNW 12:08:34 62° SW 12:11:27 10° SE
STARLINK-1193 2.7 12:07:35 30° WNW 12:08:47 62° SW 12:11:40 10° SE
STARLINK-1194 2.7 12:07:47 30° WNW 12:09:00 61° SW 12:11:53 10° SE
Meteor 1-31 Rocket 3.9 12:07:07 10° NNW 12:10:10 23° WNW 12:10:40 22° W
STARLINK-1148 3.1 12:07:51 19° NW 12:10:19 85° SW 12:13:53 10° SE
Cosmos 2228 Rocket 4.1 12:07:37 10° SSE 12:11:52 49° E 12:16:10 10° NNE
Cosmos 1346 Rocket 2.7 12:07:59 10° N 12:11:54 90° SW 12:15:47 10° S
Cosmos 2233 Rocket 4.0 12:06:11 10° N 12:12:31 88° W 12:18:51 10° S
STARLINK-1158 3.1 12:10:54 18° NW 12:13:30 79° SW 12:17:05 10° SE
Cosmos 1340 2.6 12:10:01 10° NNW 12:13:44 62° W 12:17:26 10° S
STARLINK-1170 3.2 12:13:33 28° W 12:14:26 37° SW 12:17:02 10° SSE
MOS 1-B 4.3 12:09:21 10° NNE 12:15:12 83° WNW 12:21:00 10° SSW
STARLINK-1162 3.1 12:15:16 17° NW 12:17:54 67° SW 12:21:23 10° SE
Sich 1 4.1 12:14:57 10° NW 12:18:24 24° W 12:21:52 10° SW
PSLV R/B 4.0 12:16:01 10° N 12:19:41 44° WNW 12:23:25 10° SW
STARLINK-1157 3.2 12:18:04 15° WNW 12:20:47 63° SW 12:24:15 10° SE
STARLINK-1159 3.3 12:20:58 14° WNW 12:23:48 58° SW 12:27:15 10° SE
ADEOS Rocket 3.7 12:19:36 10° SSE 12:26:02 69° ENE 12:33:13 10° N
STARLINK-1171 3.4 12:23:55 13° WNW 12:26:53 54° SW 12:30:18 10° SSE
Cosmos 1151 Rocket 3.6 12:23:16 10° SW 12:27:15 35° WNW 12:31:17 10° N
STARLINK-1155 3.4 12:26:46 12° WNW 12:29:50 50° SW 12:33:14 10° SSE
USA 267 3.5 12:23:54 10° SSE 12:30:11 49° SW 12:36:30 10° NW
Cosmos 468 Rocket 4.5 12:27:48 10° NW 12:32:41 39° W 12:37:29 10° SSW
COSMOS 2455 3.3 12:26:50 10° NNW 12:32:50 66° ENE 12:38:48 10° SE
STARLINK-1166 3.6 12:29:42 11° WNW 12:32:53 46° SW 12:36:16 10° SSE
STARLINK-1165 3.7 12:32:37 10° WNW 12:35:55 42° SW 12:39:15 10° SSE
Cosmos 220 Rocket 4.5 12:32:04 10° NW 12:35:56 36° WSW 12:39:48 10° S
Cosmos 1782 3.2 12:32:15 10° S 12:36:15 70° E 12:40:16 10° NNE
PAYLOAD B 4.2 12:31:59 10° N 12:37:29 65° WNW 12:42:55 10° SSW
Cosmos 1470 Rocket 3.8 12:33:46 10° NNW 12:38:06 49° W 12:42:24 10° SSW
STARLINK-1169 3.8 12:35:37 10° WNW 12:38:56 39° SW 12:42:15 10° SSE
USA 116 3.3 12:38:37 10° S 12:41:37 48° W 12:44:42 10° NNW
STARLINK-1178 3.9 12:38:40 10° WNW 12:41:57 36° SW 12:45:13 10° SSE
NOSS 3-4 (A) 4.0 12:34:54 10° NNW 12:42:07 90° SW 12:49:59 10° SSE
NOSS 3-4 (C) 4.0 12:35:01 10° NNW 12:42:13 90° ENE 12:50:05 10° SSE
SKYMED 2 4.5 12:41:09 10° SSW 12:44:52 28° W 12:48:37 10° NW
STARLINK-1120 4.0 12:41:40 10° WNW 12:44:54 34° SW 12:48:07 10° SSE
Cosmos 1814 Rocket 4.0 12:40:54 10° NNW 12:46:10 78° WSW 12:51:27 10° SSE
DELTA 2 R/B (1) 3.6 12:40:54 10° WNW 12:46:30 80° SSW 12:52:04 10° ESE
ISS -1.3 12:45:50 10° NNW 12:46:45 11° NNW 12:47:41 10° N
STARLINK-1131 4.1 12:44:46 10° WNW 12:47:57 31° SW 12:51:07 10° SSE
STARLINK-1241 4.3 12:45:49 10° SSW 12:48:20 34° SE 12:50:49 10° ENE
STARLINK-1241 4.2 12:46:10 10° SSW 12:48:34 32° SE 12:50:56 10° ENE
STARLINK-1239 4.2 12:46:45 10° SSW 12:49:17 35° SE 12:51:47 10° ENE
Meteor 1-25 Rocket 4.2 12:44:27 10° NNW 12:50:00 69° W 12:55:31 10° S
Atlas Centaur 2 3.7 12:46:50 10° W 12:54:21 46° S 13:02:23 10° ESE
